Hourly Weather Kazan'

Today, 14 July, Tuesday

Time Temperature Precipitation Wind Pressure Humidity
00:00 +25°C° 0 mm 3 mps 751 mmHg 93%
01:00 +24°C° 0 mm 3 mps 751 mmHg 91%
02:00 +24°C° 0 mm 3 mps 751 mmHg 89%
03:00 +24°C° 0 mm 3 mps 752 mmHg 84%
04:00 +25°C° 0 mm 3 mps 752 mmHg 81%
05:00 +25°C° 0 mm 4 mps 751 mmHg 79%
06:00 +26°C° 0 mm 4 mps 751 mmHg 76%
07:00 +27°C° 0 mm 4 mps 751 mmHg 71%
08:00 +28°C° 0 mm 5 mps 751 mmHg 66%
09:00 +30°C° 0 mm 5 mps 751 mmHg 61%
10:00 +32°C° 0 mm 5 mps 751 mmHg 61%
11:00 +32°C° 0 mm 5 mps 751 mmHg 60%
12:00 +33°C° 0 mm 5 mps 751 mmHg 59%
13:00 +33°C° 0 mm 5 mps 751 mmHg 60%
14:00 +34°C° 0 mm 5 mps 752 mmHg 61%
15:00 +34°C° 0 mm 5 mps 752 mmHg 62%
16:00 +33°C° 0 mm 5 mps 751 mmHg 66%
17:00 +33°C° 0 mm 4 mps 751 mmHg 69%
18:00 +32°C° 0 mm 4 mps 751 mmHg 72%
19:00 +30°C° 0 mm 4 mps 751 mmHg 72%
20:00 +29°C° 0 mm 5 mps 751 mmHg 72%
21:00 +28°C° 0 mm 5 mps 751 mmHg 72%
22:00 +27°C° 0.4 mm 4 mps 751 mmHg 73%
23:00 +26°C° 0.4 mm 3 mps 751 mmHg 74%

Tomorrow, 15 July, Wednesday

Time Temperature Precipitation Wind Pressure Humidity
00:00 +24°C° 0.4 mm 1 mps 751 mmHg 74%
01:00 +24°C° 0 mm 2 mps 751 mmHg 76%
02:00 +24°C° 0 mm 3 mps 751 mmHg 78%
03:00 +22°C° 0 mm 3 mps 751 mmHg 80%
04:00 +24°C° 0 mm 3 mps 751 mmHg 79%
05:00 +24°C° 0 mm 3 mps 751 mmHg 78%
06:00 +25°C° 0 mm 2 mps 751 mmHg 78%
07:00 +26°C° 0 mm 2 mps 751 mmHg 74%
08:00 +27°C° 0 mm 3 mps 751 mmHg 70%
09:00 +28°C° 0 mm 3 mps 751 mmHg 66%
10:00 +29°C° 0 mm 3 mps 751 mmHg 66%
11:00 +29°C° 0 mm 3 mps 751 mmHg 65%
12:00 +29°C° 0 mm 3 mps 751 mmHg 64%
13:00 +29°C° 0.1 mm 4 mps 751 mmHg 66%
14:00 +29°C° 0.1 mm 4 mps 751 mmHg 68%
15:00 +28°C° 0.1 mm 4 mps 751 mmHg 69%
16:00 +28°C° 0 mm 4 mps 751 mmHg 71%
17:00 +28°C° 0 mm 4 mps 751 mmHg 73%
18:00 +28°C° 0 mm 4 mps 751 mmHg 74%
19:00 +26°C° 0.4 mm 4 mps 751 mmHg 78%
20:00 +25°C° 0.4 mm 4 mps 751 mmHg 81%
21:00 +23°C° 0.4 mm 4 mps 752 mmHg 84%
22:00 +22°C° 0 mm 3 mps 752 mmHg 85%
23:00 +21°C° 0 mm 3 mps 752 mmHg 87%

Day after tomorrow, 16 July, Thursday

Time Temperature Precipitation Wind Pressure Humidity
00:00 +19°C° 0 mm 3 mps 752 mmHg 88%
01:00 +19°C° 0 mm 2 mps 752 mmHg 87%
02:00 +19°C° 0 mm 1 mps 752 mmHg 87%
03:00 +16°C° 0 mm 0 mps 752 mmHg 86%
04:00 +19°C° 0 mm 1 mps 752 mmHg 85%
05:00 +19°C° 0 mm 2 mps 752 mmHg 83%
06:00 +20°C° 0 mm 2 mps 752 mmHg 81%
07:00 +21°C° 0 mm 3 mps 752 mmHg 77%
08:00 +22°C° 0 mm 4 mps 752 mmHg 72%
09:00 +23°C° 0 mm 5 mps 752 mmHg 67%
10:00 +25°C° 0 mm 5 mps 752 mmHg 64%
11:00 +25°C° 0 mm 5 mps 752 mmHg 60%
12:00 +26°C° 0 mm 4 mps 752 mmHg 57%
13:00 +26°C° 0 mm 4 mps 752 mmHg 55%
14:00 +26°C° 0 mm 4 mps 752 mmHg 54%
15:00 +26°C° 0 mm 4 mps 752 mmHg 53%
16:00 +26°C° 0 mm 3 mps 752 mmHg 57%
17:00 +25°C° 0 mm 3 mps 752 mmHg 60%
18:00 +25°C° 0 mm 2 mps 751 mmHg 64%
19:00 +23°C° 0 mm 2 mps 752 mmHg 67%
20:00 +21°C° 0 mm 1 mps 752 mmHg 71%
21:00 +19°C° 0 mm 1 mps 752 mmHg 74%
22:00 +19°C° 0 mm 1 mps 752 mmHg 75%
23:00 +19°C° 0 mm 1 mps 752 mmHg 76%

17 July, Friday

Time Temperature Precipitation Wind Pressure Humidity
00:00 +17°C° 0 mm 2 mps 752 mmHg 77%
01:00 +17°C° 0 mm 2 mps 751 mmHg 79%
02:00 +16°C° 0 mm 2 mps 751 mmHg 81%
03:00 +16°C° 0 mm 2 mps 751 mmHg 83%
04:00 +16°C° 0 mm 2 mps 751 mmHg 83%
05:00 +17°C° 0 mm 2 mps 751 mmHg 83%
06:00 +17°C° 0 mm 3 mps 751 mmHg 83%
07:00 +18°C° 0 mm 3 mps 751 mmHg 77%
08:00 +19°C° 0 mm 3 mps 751 mmHg 72%
09:00 +21°C° 0 mm 3 mps 751 mmHg 66%
10:00 +21°C° 0 mm 3 mps 751 mmHg 66%
11:00 +21°C° 0 mm 3 mps 752 mmHg 65%
12:00 +22°C° 0 mm 3 mps 752 mmHg 64%
13:00 +22°C° 0 mm 4 mps 752 mmHg 64%
14:00 +22°C° 0 mm 4 mps 752 mmHg 63%
15:00 +23°C° 0 mm 4 mps 752 mmHg 63%
16:00 +22°C° 0 mm 3 mps 752 mmHg 66%
17:00 +22°C° 0 mm 3 mps 752 mmHg 68%
18:00 +23°C° 0 mm 2 mps 752 mmHg 71%
19:00 +20°C° 0 mm 2 mps 752 mmHg 75%
20:00 +19°C° 0 mm 2 mps 752 mmHg 80%
21:00 +19°C° 0 mm 1 mps 752 mmHg 85%
22:00 +18°C° 0 mm 1 mps 752 mmHg 86%
23:00 +17°C° 0 mm 2 mps 752 mmHg 87%

18 July, Saturday

Time Temperature Precipitation Wind Pressure Humidity
00:00 +17°C° 0 mm 2 mps 752 mmHg 88%
01:00 +16°C° 0 mm 2 mps 752 mmHg 89%
02:00 +15°C° 0 mm 1 mps 752 mmHg 90%
03:00 +15°C° 0 mm 1 mps 752 mmHg 91%
04:00 +16°C° 0 mm 1 mps 752 mmHg 90%
05:00 +16°C° 0 mm 2 mps 753 mmHg 88%
06:00 +17°C° 0 mm 2 mps 753 mmHg 87%
07:00 +18°C° 0 mm 2 mps 753 mmHg 81%
08:00 +20°C° 0 mm 3 mps 753 mmHg 76%
09:00 +21°C° 0 mm 3 mps 753 mmHg 70%
10:00 +22°C° 0 mm 3 mps 753 mmHg 69%
11:00 +22°C° 0 mm 4 mps 753 mmHg 67%
12:00 +23°C° 0 mm 4 mps 753 mmHg 66%
13:00 +23°C° 0.1 mm 4 mps 753 mmHg 66%
14:00 +23°C° 0.1 mm 4 mps 753 mmHg 66%
15:00 +23°C° 0.1 mm 4 mps 753 mmHg 66%
16:00 +22°C° 0.1 mm 4 mps 753 mmHg 69%
17:00 +22°C° 0.1 mm 4 mps 753 mmHg 72%
18:00 +21°C° 0.1 mm 4 mps 753 mmHg 75%
19:00 +20°C° 0 mm 3 mps 753 mmHg 80%
20:00 +18°C° 0 mm 3 mps 753 mmHg 85%
21:00 +17°C° 0 mm 2 mps 753 mmHg 90%
22:00 +16°C° 0 mm 2 mps 753 mmHg 90%
23:00 +16°C° 0 mm 2 mps 753 mmHg 90%

19 July, Sunday

Time Temperature Precipitation Wind Pressure Humidity
00:00 +15°C° 0 mm 2 mps 753 mmHg 91%
01:00 +15°C° 0 mm 2 mps 753 mmHg 91%
02:00 +14°C° 0 mm 2 mps 753 mmHg 92%
03:00 +14°C° 0 mm 2 mps 753 mmHg 93%
04:00 +15°C° 0 mm 2 mps 753 mmHg 91%
05:00 +15°C° 0 mm 2 mps 753 mmHg 89%
06:00 +16°C° 0 mm 2 mps 753 mmHg 87%
07:00 +17°C° 0 mm 3 mps 753 mmHg 82%
08:00 +18°C° 0 mm 3 mps 753 mmHg 76%
09:00 +20°C° 0 mm 3 mps 753 mmHg 71%
10:00 +20°C° 0 mm 2 mps 752 mmHg 68%
11:00 +21°C° 0 mm 2 mps 752 mmHg 66%
12:00 +23°C° 0 mm 2 mps 752 mmHg 64%
13:00 +23°C° 0.4 mm 2 mps 752 mmHg 64%
14:00 +23°C° 0.4 mm 2 mps 752 mmHg 64%
15:00 +23°C° 0.4 mm 2 mps 751 mmHg 63%
16:00 +23°C° 0.4 mm 1 mps 751 mmHg 66%
17:00 +23°C° 0.4 mm 1 mps 751 mmHg 69%
18:00 +23°C° 0.4 mm 1 mps 751 mmHg 71%
19:00 +21°C° 0 mm 1 mps 751 mmHg 76%
20:00 +20°C° 0 mm 1 mps 750 mmHg 80%
21:00 +19°C° 0 mm 1 mps 750 mmHg 84%
22:00 +17°C° 0 mm 2 mps 750 mmHg 86%
23:00 +17°C° 0 mm 2 mps 750 mmHg 88%
Show more